Home   Weather   Santa Ana   Past weeks

Flag for El Salvador Past Weather in Santa Ana, El Salvador — Yesterday and Last 2 Weeks

Now
73 °F

Passing clouds.


Feels Like: 70 °F
Forecast: 61 / 86 °F
Wind: No wind

Location: San Salvador / Ilopango

Current Time: Dec 5, 2016 at 2:31:10 am

Latest Report: Dec 4, 2016 at 11:50 pm


Visibility: 5 mi

Pressure: 29.95 "Hg (27.79 "Hg at 650m altitude)

Humidity: 94%

Dew Point: 72 °F

Location of Santa AnaLocation

Past Weather in Santa Ana — Graph

°F

Santa Ana Temperature Yesterday

Maximum temperature yesterday: 84 °F (at 12:50 pm)
Minimum temperature yesterday: 70 °F (at 5:50 am)
Average temperature yesterday: 77 °F

High & Low Weather Summary for the Past Weeks

 TemperatureHumidityPressure
High86 °F (Nov 24, 1:50 pm)100% (Nov 29, 9:50 pm)30.04 "Hg (Nov 29, 9:50 pm)
Low64 °F (Nov 21, 10:50 pm)43% (Nov 23, 3:50 pm)29.86 "Hg (Nov 28, 4:50 pm)
Average76 °F71%29.96 "Hg
* Reported Nov 19 11:50 pm — Dec 4 11:50 pm, Santa Ana, Weather by CustomWeather, © 2016

Note: Actual official high and low records may vary slightly from our data, if they occured in-between our weather recording intervals... More about our weather records

Advertising

Santa Ana Weather History for the Previous 24 Hours

Scroll right to see more
 ConditionsComfort  
Time TempWeatherWind HumidityBarometerVisibility
11:50 pm
Sun, Dec 4
73 °FPassing clouds.No wind94%29.95 "Hg5 mi
10:50 pm72 °FPassing clouds.2 mph100%29.98 "HgN/A
9:50 pm75 °FThundershowers. Passing clouds.3 mph89%29.98 "HgN/A
8:50 pm75 °FPassing clouds.3 mph89%29.98 "HgN/A
7:50 pm75 °FPassing clouds.2 mph83%29.95 "HgN/A
6:50 pm75 °FPassing clouds.No wind83%29.92 "Hg5 mi
5:50 pm75 °FPassing clouds.10 mph83%29.92 "Hg5 mi
4:50 pm77 °FScattered clouds.8 mph83%29.92 "HgN/A
3:50 pm81 °FPassing clouds.6 mph70%29.89 "HgN/A
2:50 pm81 °FPassing clouds.8 mph70%29.92 "Hg5 mi
1:50 pm84 °FPassing clouds.5 mph66%29.92 "Hg5 mi
12:50 pm84 °FHaze.6 mph66%29.92 "Hg4 mi
11:50 am81 °FScattered clouds.8 mph74%29.95 "Hg4 mi
10:50 am82 °FFog.6 mph66%29.95 "Hg2 mi
9:50 am79 °FFog.3 mph74%29.98 "Hg2 mi
8:50 am77 °FFog.2 mph79%29.98 "Hg2 mi
7:50 am75 °FFog.3 mph89%29.95 "Hg2 mi
6:50 am70 °FFog.2 mph88%29.95 "Hg4 mi
5:50 am70 °FFog.2 mph94%29.95 "Hg4 mi
Weather by CustomWeather, © 2016

See weather overviewHow to use our weather pages